Powrót do katalogu

ELECTRON KICK STAGE R/B

AktywnySSO
NORAD 62928·ROCKET BODY·🇺🇸 United States

Wystrzelony Feb 8, 2025 z Rocket Lab Launch Complex 1

Loading…

Następne Przeloty (najbliższe 24 godziny)

TLE

ŚwieżeSource: Space-Track

Epoka: Sep 14, 2026, 22:14 UTC

1 62928U 25028A   26257.92657837  .00001561  00000-0  16766-3 0  9995
2 62928  97.8804 317.8446 0037936 273.9170  85.7711 14.89561064 86709

Śledź ELECTRON KICK STAGE R/B w czasie rzeczywistym z AllMySat

Download on the App Store